sat.trackr.live / text

‹ back to catalog

GSAT0215 (GALILEO 19)

NORAD 43055 · 2017-079A

PAYLOAD ACTIVE UNKNOWN

§ Identity

Operator
Country
ESA
Launch date
2017-12-12
Launch site
FRGUI
Launch vehicle
Mass (kg)
RCS (m²)

Purposes: earth_obs, nav

External: N2YO · Heavens-Above · Gunter

§ Orbital elements

Epoch: 2026-09-19T10:55:25.847328Z

Period
844.70 min
Inclination
55.0517°
Eccentricity
0.0003150
Mean motion
1.70473929 rev/d
Perigee alt
23,212.9 km
Apogee alt
23,231.5 km
Semi-major
29,600.3 km
B*
0.0000e+0
RAAN
218.9141°
Arg perigee
284.3874°
Mean anomaly
75.5511°
Rev number
5,459

§ Raw data

GSAT0215 (GALILEO 19)1 43055U 17079A   26262.45516027  .00000016  00000+0  00000+0 0  99942 43055  55.0517 218.9141 0003150 284.3874  75.5511  1.70473929 54592

JSON: /api/v1/satellites/43055 · /tle

For live sub-satellite position, see the globe view (requires WebGL).

§ Visibility from observer

Set your observer location to see the next 7 days of passes ≥ 10°. The values pass through the URL so the page stays shareable.

No JS? Fill the form by hand. The geolocation button needs JavaScript.